Weather History for Kemmerer, WY

Change the Weather History Date:

Wednesday, August 21, 2013

  Actual Average Record
Temperature  
Mean Temperature 68 °F -  
Max Temperature 80 °F 78 °F 89 °F (1982)
Min Temperature 55 °F 42 °F 25 °F (1966)
Cooling Degree Days 2    
Growing Degree Days 18 (Base 50)    
Moisture  
Dew Point 47 °F    
Average Humidity 54    
Maximum Humidity 88    
Minimum Humidity 24    
Precipitation  
Precipitation 0.00 in - - ()
Sea Level Pressure  
Sea Level Pressure 30.31 in    
Wind  
Wind Speed 6 mph (NW)    
Max Wind Speed 14 mph    
Max Gust Speed 21 mph    
Visibility 10 miles    
Events Rain , Thunderstorm    
Averages and records for this station are not official NWS values.
T = Trace of Precipitation, MM = Missing Value Source: NWS Daily Summary

Daily Weather History Graph

Daily Weather History Graph

Search for Another Location

Airport:

Trip Planner

Search our weather history database for the weather conditions in past years. The results will help you decide how hot, cold, wet, or windy it might be!

Date:

Astronomy

Aug. 21, 2013 Rise Set
Actual Time 6:36 AM MDT 8:12 PM MDT
Civil Twilight 6:07 AM MDT 8:42 PM MDT
Nautical Twilight 5:31 AM MDT 9:17 PM MDT
Astronomical Twilight 4:53 AM MDT 9:55 PM MDT
Moon 8:21 PM MDT (8/21) 7:22 AM MDT (8/21)
Length of Visible Light 14h 34m
Length of Day
13h 35m
Full, 99% of the Moon is Illuminated
Aug 21
Full
Aug 28
Last Quarter
Sep 5
New
Sep 12
First Quarter
Sep 19
Full

Hourly Weather History & Observations

Time (MDT) Temp. Dew Point Humidity Pressure Visibility Wind Dir Wind Speed Gust Speed Precip Events Conditions
12:15 AM 59.0 °F 50.0 °F 72% 30.30 in 10.0 mi SW 3.5 mph - N/A   Clear
12:35 AM 59.0 °F 50.0 °F 72% 30.30 in 10.0 mi WSW 4.6 mph - N/A   Clear
12:55 AM 60.8 °F 50.0 °F 68% 30.29 in 10.0 mi SW 4.6 mph - N/A   Clear
1:15 AM 59.0 °F 50.0 °F 72% 30.29 in 10.0 mi SW 4.6 mph - N/A   Scattered Clouds
1:35 AM 59.0 °F 48.2 °F 67% 30.29 in 10.0 mi Calm Calm - N/A   Overcast
1:55 AM 59.0 °F 48.2 °F 67% 30.29 in 10.0 mi Calm Calm - N/A   Mostly Cloudy
2:15 AM 59.0 °F 48.2 °F 67% 30.29 in 10.0 mi Calm Calm - N/A   Mostly Cloudy
2:35 AM 59.0 °F 50.0 °F 72% 30.30 in 10.0 mi North 4.6 mph - N/A   Overcast
2:55 AM 55.4 °F 51.8 °F 88% 30.29 in 10.0 mi NNW 9.2 mph - N/A Rain Light Rain
3:15 AM 55.4 °F 51.8 °F 88% 30.30 in 10.0 mi North 6.9 mph - N/A   Mostly Cloudy
3:35 AM 55.4 °F 51.8 °F 88% 30.30 in 10.0 mi North 5.8 mph - N/A   Mostly Cloudy
3:55 AM 55.4 °F 51.8 °F 88% 30.30 in 10.0 mi North 6.9 mph - N/A   Overcast
4:15 AM 55.4 °F 51.8 °F 88% 30.30 in 10.0 mi North 6.9 mph - N/A Rain Light Rain
4:35 AM 55.4 °F 50.0 °F 82% 30.30 in 10.0 mi North 6.9 mph - N/A   Overcast
4:55 AM 55.4 °F 51.8 °F 88% 30.30 in 10.0 mi NNW 8.1 mph - N/A   Overcast
5:15 AM 55.4 °F 50.0 °F 82% 30.30 in 10.0 mi North 9.2 mph - N/A   Overcast
5:35 AM 55.4 °F 50.0 °F 82% 30.30 in 10.0 mi North 8.1 mph - N/A   Overcast
5:55 AM 55.4 °F 50.0 °F 82% 30.30 in 10.0 mi North 8.1 mph - N/A   Overcast
6:15 AM 55.4 °F 50.0 °F 82% 30.30 in 10.0 mi NNW 8.1 mph - N/A   Overcast
6:35 AM 55.4 °F 50.0 °F 82% 30.31 in 10.0 mi NW 8.1 mph - N/A   Mostly Cloudy
6:55 AM 55.4 °F 50.0 °F 82% 30.32 in 10.0 mi NW 5.8 mph - N/A   Scattered Clouds
7:15 AM 55.4 °F 50.0 °F 82% 30.32 in 10.0 mi NNW 5.8 mph - N/A Thunderstorm Clear
7:35 AM 55.4 °F 50.0 °F 82% 30.32 in 10.0 mi NW 8.1 mph - N/A   Scattered Clouds
7:55 AM 59.0 °F 50.0 °F 72% 30.32 in 10.0 mi NNW 10.4 mph - N/A   Mostly Cloudy
8:15 AM 60.8 °F 51.8 °F 72% 30.34 in 10.0 mi NW 9.2 mph - N/A   Overcast
8:35 AM 60.8 °F 50.0 °F 68% 30.34 in 10.0 mi NNW 8.1 mph - N/A   Mostly Cloudy
8:55 AM 60.8 °F 51.8 °F 72% 30.34 in 10.0 mi NW 5.8 mph - N/A   Overcast
9:15 AM 62.6 °F 50.0 °F 63% 30.34 in 10.0 mi NW 8.1 mph - N/A   Overcast
9:35 AM 66.2 °F 48.2 °F 52% 30.34 in 10.0 mi NNW 9.2 mph - N/A   Overcast
9:55 AM 68.0 °F 50.0 °F 52% 30.34 in 10.0 mi NW 6.9 mph - N/A   Mostly Cloudy
10:15 AM 68.0 °F 48.2 °F 49% 30.35 in 10.0 mi NNW 8.1 mph - N/A   Clear
10:35 AM 71.6 °F 46.4 °F 41% 30.35 in 10.0 mi NNW 6.9 mph - N/A   Clear
10:55 AM 69.8 °F 44.6 °F 40% 30.35 in 10.0 mi NNW 4.6 mph - N/A   Scattered Clouds
11:15 AM 69.8 °F 46.4 °F 43% 30.35 in 10.0 mi West 3.5 mph - N/A   Mostly Cloudy
11:35 AM 73.4 °F 44.6 °F 36% 30.35 in 10.0 mi WSW 8.1 mph - N/A   Scattered Clouds
11:55 AM 71.6 °F 44.6 °F 38% 30.34 in 10.0 mi West 5.8 mph - N/A   Scattered Clouds
12:15 PM 73.4 °F 44.6 °F 36% 30.34 in 10.0 mi WSW 9.2 mph - N/A   Clear
12:35 PM 77.0 °F 42.8 °F 29% 30.34 in 10.0 mi WSW 9.2 mph - N/A   Clear
12:55 PM 77.0 °F 42.8 °F 29% 30.33 in 10.0 mi SSW 5.8 mph - N/A   Scattered Clouds
1:15 PM 77.0 °F 42.8 °F 29% 30.32 in 10.0 mi West 10.4 mph - N/A   Scattered Clouds
1:35 PM 78.8 °F 42.8 °F 28% 30.32 in 10.0 mi WSW 9.2 mph - N/A   Mostly Cloudy
1:55 PM 78.8 °F 41.0 °F 26% 30.32 in 10.0 mi WNW 10.4 mph 16.1 mph N/A   Mostly Cloudy
2:15 PM 78.8 °F 41.0 °F 26% 30.30 in 10.0 mi West 10.4 mph 19.6 mph N/A   Scattered Clouds
2:35 PM 77.0 °F 41.0 °F 28% 30.30 in 10.0 mi SW 9.2 mph 16.1 mph N/A   Scattered Clouds
2:55 PM 77.0 °F 42.8 °F 29% 30.30 in 10.0 mi West 4.6 mph 16.1 mph N/A   Scattered Clouds
3:15 PM 80.6 °F 41.0 °F 24% 30.29 in 10.0 mi WSW 11.5 mph - N/A   Scattered Clouds
3:35 PM 80.6 °F 41.0 °F 24% 30.28 in 10.0 mi WNW 4.6 mph 10.4 mph N/A   Clear
3:55 PM 78.8 °F 39.2 °F 24% 30.28 in 10.0 mi West 13.8 mph 20.7 mph N/A   Clear
4:15 PM 77.0 °F 39.2 °F 26% 30.27 in 10.0 mi WNW 3.5 mph - N/A   Mostly Cloudy
4:35 PM 78.8 °F 39.2 °F 24% 30.27 in 10.0 mi SSW 5.8 mph 19.6 mph N/A   Mostly Cloudy
4:55 PM 77.0 °F 42.8 °F 29% 30.27 in 10.0 mi ENE 6.9 mph - N/A   Mostly Cloudy
5:15 PM 77.0 °F 42.8 °F 29% 30.27 in 10.0 mi NE 8.1 mph - N/A   Overcast
5:35 PM 78.8 °F 42.8 °F 28% 30.27 in 10.0 mi NE 10.4 mph - N/A   Overcast
5:55 PM 77.0 °F 44.6 °F 32% 30.26 in 10.0 mi ENE 9.2 mph - N/A   Overcast
6:15 PM 77.0 °F 42.8 °F 29% 30.27 in 10.0 mi NE 6.9 mph - N/A   Overcast
6:35 PM 73.4 °F 42.8 °F 33% 30.27 in 10.0 mi NE 11.5 mph - N/A   Overcast
6:55 PM 73.4 °F 42.8 °F 33% 30.26 in 10.0 mi NE 9.2 mph - N/A   Overcast
7:15 PM 73.4 °F 42.8 °F 33% 30.27 in 10.0 mi NE 5.8 mph - N/A   Overcast
7:35 PM 73.4 °F 42.8 °F 33% 30.28 in 10.0 mi NE 6.9 mph - N/A Thunderstorm Mostly Cloudy
7:55 PM 71.6 °F 42.8 °F 35% 30.29 in 10.0 mi North 4.6 mph - N/A   Overcast
8:15 PM 69.8 °F 46.4 °F 43% 30.29 in 10.0 mi NNW 6.9 mph - N/A   Mostly Cloudy
8:35 PM 68.0 °F 46.4 °F 46% 30.30 in 10.0 mi NNW 8.1 mph - N/A   Scattered Clouds
8:55 PM 66.2 °F 46.4 °F 49% 30.31 in 10.0 mi NNW 8.1 mph - N/A   Scattered Clouds
9:15 PM 64.4 °F 46.4 °F 52% 30.31 in 10.0 mi North 9.2 mph - N/A   Clear
9:35 PM 64.4 °F 46.4 °F 52% 30.32 in 10.0 mi NNW 9.2 mph - N/A   Clear
9:55 PM 64.4 °F 46.4 °F 52% 30.32 in 10.0 mi NNW 9.2 mph - N/A   Clear
10:15 PM 62.6 °F 46.4 °F 55% 30.32 in 10.0 mi NNW 8.1 mph - N/A   Clear
10:35 PM 62.6 °F 46.4 °F 55% 30.32 in 10.0 mi NNW 9.2 mph - N/A   Clear
10:55 PM 62.6 °F 46.4 °F 55% 30.33 in 10.0 mi NNW 8.1 mph - N/A   Clear
11:15 PM 60.8 °F 46.4 °F 59% 30.33 in 10.0 mi NNW 8.1 mph - N/A   Clear
11:35 PM 59.0 °F 46.4 °F 63% 30.34 in 10.0 mi North 11.5 mph - N/A   Clear
11:55 PM 59.0 °F 44.6 °F 59% 30.34 in 10.0 mi North 12.7 mph - N/A   Clear